GW2492 Weather Reports


Display with metric or nautical units.
time (UTC)temp
F
wind
direction
speed
MPH
gust
MPH
rain 1hr
in
rain 24hr
in
rain mn
in
humidity
%
barometer
mb
20260504020058 69 153 7.0 9.0 0.00 0.00 0.00 55 1015.8
20260504014546 69 163 7.0 10.0 0.00 0.00 0.00 55 1015.8
20260504013055 71 182 9.0 13.0 0.00 0.00 0.00 52 1016.0
20260504011541 72 171 10.0 14.0 0.00 0.00 0.00 50 1015.8
20260504010046 72 175 12.0 16.0 0.00 0.00 0.00 48 1015.8
20260504004546 73 178 8.0 13.0 0.00 0.00 0.00 47 1015.7
20260504003045 73 190 11.0 19.0 0.00 0.00 0.00 44 1015.8
20260504001547 74 189 12.0 18.0 0.00 0.00 0.00 45 1015.8
20260504000045 74 190 12.0 20.0 0.00 0.00 0.00 43 1016.0
20260503234538 74 193 14.0 20.0 0.00 0.00 0.00 42 1016.2
20260503233046 75 200 15.0 21.0 0.00 0.00 0.00 43 1016.4
20260503231549 75 181 13.0 21.0 0.00 0.00 0.00 44 1016.2
20260503230045 76 180 12.0 17.0 0.00 0.00 0.00 44 1016.3
20260503224541 75 173 12.0 19.0 0.00 0.00 0.00 44 1016.4
20260503223040 75 185 10.0 19.0 0.00 0.00 0.00 44 1016.7
20260503221558 75 184 12.0 18.0 0.00 0.00 0.00 43 1017.0
20260503220045 75 178 14.0 21.0 0.00 0.00 0.00 41 1016.8
20260503214544 76 225 12.0 19.0 0.00 0.00 0.00 42 1017.0
20260503213046 76 175 12.0 19.0 0.00 0.00 0.00 41 1017.1
20260503211542 76 191 14.0 21.0 0.00 0.00 0.00 41 1017.6
20260503210046 75 155 8.0 20.0 0.00 0.00 0.00 42 1017.8
20260503204601 76 181 10.0 21.0 0.00 0.00 0.00 43 1018.1
20260503203046 75 198 8.0 18.0 0.00 0.00 0.00 42 1018.6
20260503201541 75 213 8.0 20.0 0.00 0.00 0.00 43 1018.8
20260503200041 75 163 11.0 23.0 0.00 0.00 0.00 44 1019.2
20260503194547 75 163 12.0 19.0 0.00 0.00 0.00 45 1019.2
20260503193048 75 163 14.0 22.0 0.00 0.00 0.00 44 1019.6
20260503191606 74 161 12.0 21.0 0.00 0.00 0.00 44 1020.0
20260503190042 74 200 10.0 18.0 0.00 0.00 0.00 46 1020.0
20260503184544 74 170 11.0 23.0 0.00 0.00 0.00 45 1020.4
20260503183046 73 180 9.0 20.0 0.00 0.00 0.00 48 1020.8
20260503181550 73 199 10.0 21.0 0.00 0.00 0.00 46 1020.9
20260503180055 72 190 11.0 17.0 0.00 0.00 0.00 46 1021.3
20260503174551 72 188 15.0 22.0 0.00 0.00 0.00 47 1021.6
20260503173041 72 170 19.0 24.0 0.00 0.00 0.00 46 1021.8
20260503171549 72 169 10.0 20.0 0.00 0.00 0.00 49 1022.1
20260503081547 54 208 2.0 4.0 0.00 0.00 0.00 76 1021.6
20260503071545 56 175 7.0 10.0 0.00 0.00 0.00 74 1021.8
20260503054605 56 177 3.0 5.0 0.00 0.00 0.00 76 1022.0
20260503053044 57 157 1.0 6.0 0.00 0.00 0.00 76 1022.1
20260503051543 57 163 5.0 7.0 0.00 0.00 0.00 76 1022.1
20260503050044 57 168 6.0 8.0 0.00 0.00 0.00 76 1022.0
20260503044547 57 173 5.0 6.0 0.00 0.00 0.00 77 1022.0
20260503043053 57 177 5.0 9.0 0.00 0.00 0.00 77 1022.1
20260503041544 58 175 6.0 9.0 0.00 0.00 0.00 76 1022.4
20260503040046 59 170 6.0 9.0 0.00 0.00 0.00 73 1022.4
20260503034546 60 171 5.0 8.0 0.00 0.00 0.00 74 1022.1
20260503033041 60 155 7.0 9.0 0.00 0.00 0.00 72 1021.8
20260503031543 61 151 5.0 7.0 0.00 0.00 0.00 71 1021.7
20260503030045 62 152 4.0 7.0 0.00 0.00 0.00 70 1021.6
20260503024546 64 156 2.0 5.0 0.00 0.00 0.00 70 1021.6
20260503023055 64 156 3.0 5.0 0.00 0.00 0.00 63 1021.5
20260503021545 65 141 2.0 3.0 0.00 0.00 0.00 57 1021.4